Temperature
24 21 21 22 22 22 22 21 21 21 21 20 18 16 16 16 16 15 15 15 15 15 16 17 17 18 18 19 19 19 20 20 20 20 20 20 20 20 20 19 19 19 19 19
20 21 22 22 22 21 20 20 20 20 21 20 17 16 16 15 15 14 14 14 14 14 15 16 16 17 17 18 18 18 19 19 20 20 20 20 20 20 19 19 19 19 19 19
20 21 22 21 20 20 20 20 20 20 19 19 17 15 14 15 14 14 14 13 13 13 14 15 16 16 16 17 17 17 18 19 19 19 19 19 19 19 19 19 18 19 19 18
20 20 21 20 19 19 19 20 20 20 18 16 18 15 12 13 13 13 13 13 13 13 13 14 15 15 15 16 16 17 17 18 18 18 18 19 19 19 19 19 18 18 18 18
19 19 19 19 19 19 19 19 19 19 18 16 15 13 12 12 12 12 12 12 12 12 12 13 13 14 15 15 15 16 16 17 17 18 18 18 18 19 18 18 18 18 18 18
19 20 20 19 19 19 17 17 17 15 14 14 14 13 12 11 11 12 12 12 12 12 12 12 13 13 14 14 14 15 15 16 16 17 17 17 18 18 18 18 18 17 17 17
18 18 19 19 17 17 15 14 14 14 13 13 14 13 12 12 12 12 12 11 11 12 12 12 12 13 13 14 14 14 14 15 15 16 16 16 17 17 17 17 17 17 16 16
17 16 18 18 17 17 16 14 13 14 13 13 13 12 12 12 12 12 12 11 11 11 12 12 12 12 13 13 13 13 14 14 14 15 15 15 15 16 16 16 16 16 15 15
16 17 18 18 17 16 15 14 14 13 14 13 12 12 12 12 12 12 12 11 11 11 11 12 12 12 12 13 13 13 13 13 13 14 14 14 14 15 15 15 15 15 15 15
17 16 18 18 17 16 15 14 12 12 12 12 12 12 11 11 11 11 11 11 11 11 11 11 12 12 12 12 12 13 13 13 13 13 14 14 14 14 14 14 14 14 14 14
16 15 15 15 15 14 14 13 12 11 11 11 11 11 12 11 11 11 11 11 11 11 11 11 11 12 12 12 12 12 13 13 13 13 13 13 14 14 14 14 14 14 14 14
15 13 13 15 16 16 15 14 12 11 11 11 11 11 12 11 11 11 11 12 12 12 12 12 12 12 12 12 12 12 12 13 13 13 13 13 13 13 14 14 14 14 14 14
15 13 13 14 14 15 15 14 13 11 10 10 10 11 12 12 12 12 12 13 13 12 12 12 12 12 12 12 12 12 12 12 13 13 13 13 13 14 14 14 14 14 14 14
15 13 13 14 14 14 14 14 13 11 10 11 11 11 12 12 11 12 13 13 13 13 13 13 12 12 12 12 12 12 12 12 12 13 13 13 13 13 14 14 14 14 14 14
14 14 15 15 16 15 15 14 14 13 12 11 12 12 12 12 12 13 13 13 13 13 13 13 13 13 12 12 12 12 12 12 12 12 13 13 13 13 13 14 14 14 14 14
14 14 15 15 16 16 15 15 14 14 13 12 12 12 13 13 13 13 14 14 14 14 13 13 13 13 12 12 12 12 12 12 12 12 12 12 12 13 13 13 13 13 13 13
14 14 14 14 16 15 14 15 14 14 14 13 13 13 13 13 13 14 14 14 14 14 14 14 13 13 13 12 12 12 12 12 12 12 12 12 12 12 12 12 13 13 13 13
14 13 12 13 15 15 14 15 15 15 15 14 14 14 14 14 14 14 14 14 14 14 14 14 14 13 13 13 12 12 12 12 12 12 12 12 12 12 12 12 12 12 12 12
14 14 13 12 14 14 15 15 15 15 15 15 14 15 15 15 14 14 15 15 14 14 14 14 14 14 13 13 13 13 12 12 12 12 11 11 12 12 12 12 12 11 11 11
14 12 13 13 15 14 15 15 17 15 14 15 15 15 15 14 11 13 15 15 15 15 15 14 14 14 14 13 13 13 12 12 12 12 12 11 11 11 11 11 11 11 11 11
15 14 13 13 14 14 15 16 16 14 14 16 16 16 15 15 13 15 15 15 15 15 15 15 14 14 14 14 13 13 13 12 12 12 12 12 11 11 11 11 11 11 11 11
14 13 13 12 14 14 16 15 14 14 16 16 16 16 16 15 15 15 15 15 15 15 15 15 15 14 14 14 14 13 13 13 12 12 12 12 11 11 11 11 11 11 11 11
13 13 12 13 13 15 17 17 17 17 16 16 16 16 16 15 15 15 15 15 15 15 15 15 15 15 14 14 14 14 13 13 13 12 12 11 11 11 11 11 11 11 11 11
15 14 13 13 14 16 17 17 17 17 17 16 16 16 16 15 15 15 15 15 15 15 15 15 15 15 15 14 14 14 14 13 13 12 12 11 11 11 11 11 11 11 11 11
15 15 13 14 14 15 16 17 17 17 17 16 16 16 16 15 15 15 15 15 15 15 15 15 15 15 15 14 14 14 14 13 13 12 12 12 11 11 11 11 11 11 10 10
15 14 14 13 15 15 17 17 17 16 16 16 16 16 15 15 15 15 15 15 15 15 15 15 15 15 15 15 14 14 14 13 13 12 12 12 11 11 11 11 11 10 10 10
Wind_Speed
4 7 6 6 6 5 5 6 5 3 4 7 11 12 13 16 19 18 16 15 15 14 13 13 13 12 11 11 11 11 10 8 4 1 3 4 5 5 5 5 7 9 8 9
8 7 5 8 9 9 8 6 5 4 4 5 9 11 11 16 17 15 15 15 15 16 16 16 15 14 13 11 10 10 10 9 6 3 3 3 4 3 4 4 5 7 7 8
9 4 7 12 12 9 5 4 2 4 6 4 6 6 11 10 14 17 17 15 15 16 16 16 15 14 13 12 11 10 10 10 8 6 2 1 1 1 2 3 3 3 6 7
8 6 9 10 8 7 4 5 5 4 3 3 2 2 8 11 15 20 19 18 17 17 15 14 15 14 14 12 11 10 10 9 8 5 3 2 4 5 5 4 4 3 4 6
5 5 9 8 6 7 5 8 6 4 2 2 6 5 5 9 14 19 18 18 17 17 15 14 14 13 13 12 10 10 9 9 8 6 3 3 3 4 4 5 7 5 4 5
6 3 6 4 4 6 6 6 7 6 5 5 6 4 6 8 13 17 17 17 16 16 15 13 13 13 11 10 9 9 9 9 8 6 5 2 1 3 5 6 7 5 4 4
6 7 6 6 7 9 9 7 6 8 7 2 4 6 3 7 11 12 16 16 16 14 13 13 13 13 11 11 10 8 8 8 8 7 6 4 2 3 5 6 6 6 4 3
4 6 7 7 4 4 5 6 5 2 1 1 5 4 1 5 9 11 12 13 14 14 12 12 12 11 10 10 9 8 8 8 8 7 6 5 4 3 3 4 4 4 3 3
5 3 3 6 7 5 5 4 1 5 2 3 3 2 3 8 13 15 15 15 16 14 14 13 12 11 10 9 8 7 7 7 8 7 6 6 5 5 4 4 4 2 2 2
6 5 3 4 7 9 5 3 6 5 3 2 2 3 6 13 16 16 16 15 14 14 14 13 12 11 9 8 8 8 8 7 7 7 7 6 6 5 4 4 3 2 1 1
5 6 5 6 6 7 7 6 5 4 4 3 1 3 4 9 11 12 12 12 13 13 13 12 11 11 9 9 9 9 9 8 8 8 7 7 7 6 6 4 3 2 2 1
4 6 4 3 2 3 5 4 3 4 3 3 2 3 6 7 8 9 10 10 10 10 10 11 11 11 10 10 10 9 9 9 9 8 8 8 7 7 7 6 5 4 3 2
4 6 4 3 6 6 5 5 4 6 5 3 2 4 5 6 8 8 8 9 9 8 8 8 9 9 10 9 9 9 9 9 9 8 9 9 9 9 9 8 7 7 6 5
5 5 5 5 5 2 2 4 4 5 4 2 1 4 6 7 7 8 9 9 8 8 8 8 8 8 8 8 8 8 9 8 8 9 10 11 10 9 9 9 9 8 8 8
5 5 4 5 5 5 4 4 4 4 5 5 3 3 5 4 4 6 7 8 8 8 8 8 7 7 7 8 8 9 9 8 8 9 10 9 9 9 9 9 9 9 9 9
5 5 4 2 4 5 3 3 4 4 3 3 2 3 4 2 2 5 6 7 8 8 8 8 7 7 7 7 7 8 8 8 8 9 9 9 9 9 9 9 8 9 8 7
4 6 4 2 3 2 1 4 4 3 3 5 4 4 3 1 2 3 4 6 6 7 7 7 6 5 4 4 5 6 6 7 8 8 8 8 8 9 8 8 8 8 7 7
5 5 4 3 3 3 6 4 5 5 3 4 4 4 4 4 2 2 2 2 5 6 6 7 6 5 3 3 4 5 6 7 7 7 7 7 7 8 7 8 8 7 6 6
4 6 4 4 3 2 3 4 5 5 3 4 4 3 4 3 2 4 3 1 2 4 4 4 3 2 3 3 3 5 6 6 6 7 6 6 6 7 7 8 7 6 6 7
5 6 5 3 3 5 7 6 5 5 2 4 6 5 5 5 2 4 5 2 3 4 3 4 4 3 3 2 2 4 4 5 5 4 4 5 5 6 7 7 6 5 5 6
1 2 2 3 3 6 5 6 7 4 7 6 7 7 6 5 5 5 3 2 3 3 3 3 4 3 2 1 2 3 2 2 2 3 4 5 5 6 6 6 6 6 7 7
7 5 4 4 3 7 6 8 8 8 4 8 8 7 6 4 3 1 1 2 4 4 5 4 4 4 4 2 1 1 1 1 1 3 5 6 6 6 6 7 7 7 7 8
7 8 6 7 7 5 8 8 7 7 8 7 7 6 6 4 2 1 1 2 4 5 5 4 3 4 4 4 1 1 2 1 3 4 4 5 6 6 6 7 7 6 7 6
3 4 5 2 5 4 6 5 7 8 8 8 8 7 7 5 3 2 0 2 4 5 5 4 4 5 5 5 3 2 1 2 5 5 4 4 5 6 6 6 6 6 6 6
7 6 4 3 4 3 5 6 8 8 9 8 7 7 7 6 4 2 1 2 3 4 4 4 5 5 5 4 3 3 1 5 5 4 4 4 4 4 5 6 5 5 4 4
6 8 8 8 9 9 10 10 10 11 10 10 9 7 6 6 5 3 1 2 2 3 4 5 6 6 4 3 2 3 2 5 6 4 3 3 3 3 3 4 4 7 5 7
Wind_Direction
45 58 55 51 66 92 78 71 39 29 17 60 78 65 42 36 38 32 26 20 15 12 7 9 10 9 13 12 10 3 352 343 338 270 217 204 202 191 187 188 180 177 171 171
52 43 62 69 50 55 56 56 15 336 9 64 91 71 48 43 38 30 22 13 6 2 2 2 2 3 4 3 3 357 348 338 329 303 250 218 198 189 186 185 173 170 161 156
93 43 54 57 38 28 31 59 343 312 352 33 106 58 25 21 25 22 18 11 4 360 353 353 354 352 352 354 354 351 340 334 328 320 305 257 146 121 161 170 168 166 155 148
65 17 48 51 30 15 321 311 307 301 3 309 45 75 15 353 6 8 4 1 356 351 347 345 347 345 344 343 345 345 342 337 330 321 293 229 203 197 192 176 158 147 137 135
74 44 49 39 1 360 298 297 293 276 187 50 16 97 360 354 1 353 350 351 349 345 342 340 340 338 337 338 342 343 343 345 339 333 311 255 224 206 169 153 145 144 139 128
63 47 54 7 344 355 336 353 21 45 74 56 350 82 24 3 343 337 342 344 341 339 338 337 336 339 339 342 345 347 347 347 349 353 351 353 155 161 154 155 157 155 146 131
38 17 11 8 6 359 23 43 31 23 29 45 40 71 40 340 341 335 336 337 336 337 336 339 338 337 340 346 349 351 356 354 355 4 11 22 65 127 148 152 154 155 153 152
84 14 11 12 15 350 18 78 107 115 278 331 36 60 271 329 332 337 340 341 341 342 342 344 342 339 343 349 350 354 1 2 6 14 18 23 43 79 96 112 129 145 151 148
121 109 82 46 26 50 28 19 142 142 61 63 43 17 317 339 347 349 350 351 352 349 349 348 346 352 352 353 355 358 6 11 12 18 25 30 42 67 81 89 94 102 116 138
125 118 35 12 21 23 58 48 51 66 74 50 13 2 332 331 337 343 348 349 347 347 351 353 356 358 358 1 6 12 20 21 19 23 30 42 44 59 71 75 77 76 60 72
82 107 12 27 31 5 14 25 55 77 97 116 21 321 305 306 317 326 333 341 341 346 349 354 357 358 3 13 20 20 21 24 25 27 32 39 41 46 53 61 62 67 64 69
59 101 68 38 357 58 59 39 85 108 65 82 118 283 288 297 305 312 323 332 336 340 349 355 358 1 10 17 20 20 21 26 26 28 36 37 35 40 44 43 41 44 46 39
83 101 91 358 340 0 33 21 68 108 98 79 90 297 304 311 318 322 323 326 332 339 349 354 2 6 9 13 16 19 22 23 21 24 33 37 35 36 39 37 37 40 41 39
100 82 135 163 205 199 68 40 60 93 105 118 195 272 308 318 324 329 333 333 336 345 354 358 3 5 8 10 14 19 21 20 24 27 34 38 36 36 38 39 39 41 48 51
88 93 118 152 160 131 121 104 82 96 144 149 205 241 278 297 313 323 331 340 353 358 360 1 4 5 8 15 20 23 23 23 27 33 37 35 31 33 38 40 38 39 44 51
89 123 127 150 164 133 115 136 117 112 129 144 176 256 247 250 316 339 343 354 2 1 359 357 4 16 17 19 22 25 25 23 30 37 36 34 36 36 36 36 39 42 42 42
91 124 124 197 185 116 244 201 172 158 169 165 188 225 217 185 324 329 340 356 356 356 358 2 5 13 15 20 30 28 23 30 36 37 35 35 37 38 34 37 39 38 35 38
116 115 127 127 126 237 252 216 161 157 189 190 195 207 197 197 226 278 283 356 353 353 354 355 359 8 15 32 40 39 38 40 40 35 32 31 36 36 31 34 35 30 30 35
116 125 110 118 161 267 279 202 171 163 218 202 173 179 176 161 43 344 307 312 325 333 339 342 357 22 34 42 51 56 41 37 39 33 30 29 35 36 32 30 26 24 33 36
66 88 106 122 163 236 241 205 160 119 232 221 155 140 143 123 74 285 288 314 340 339 344 352 357 23 34 19 63 63 42 35 33 30 31 33 41 43 37 30 27 26 35 36
27 48 120 167 220 259 245 149 119 158 227 188 151 148 144 163 199 239 274 322 337 339 337 353 8 358 327 295 90 67 37 18 10 43 44 40 39 45 41 38 34 34 39 40
173 172 198 166 202 255 193 143 175 210 168 146 146 153 152 170 189 196 28 352 346 341 337 348 358 344 325 311 101 63 317 290 57 65 56 49 41 44 48 48 40 35 38 42
182 186 184 186 212 237 179 187 195 156 148 152 152 155 147 143 133 108 27 358 343 342 340 341 345 342 334 327 290 257 269 208 106 87 77 65 59 49 46 51 46 38 36 42
250 152 132 192 257 202 187 168 153 155 153 158 153 145 139 141 133 108 32 341 341 339 338 343 352 348 330 321 324 290 274 138 119 111 105 89 80 64 51 50 48 49 40 39
216 164 152 205 227 188 221 189 163 153 145 147 147 147 149 144 140 142 192 317 330 334 330 338 342 332 320 317 328 346 60 120 113 113 118 111 97 93 74 61 48 49 39 41
197 173 174 210 200 181 206 198 167 155 160 160 155 157 160 158 163 157 205 287 315 330 333 339 338 332 326 335 336 355 65 125 125 123 134 143 132 120 111 97 63 36 39 43
Height
1528 1534 1541 1538 1535 1537 1538 1543 1546 1542 1538 1541 1549 1553 1553 1550 1547 1547 1546 1544 1541 1539 1536 1533 1530 1528 1526 1524 1522 1520 1519 1519 1519 1519 1520 1520 1521 1522 1524 1526 1528 1530 1532 1534
1537 1543 1538 1534 1534 1537 1541 1546 1548 1544 1539 1543 1552 1557 1557 1555 1555 1555 1552 1548 1544 1540 1535 1532 1529 1527 1524 1522 1520 1518 1517 1516 1516 1515 1516 1516 1517 1518 1519 1522 1525 1526 1529 1531
1543 1545 1537 1537 1541 1543 1545 1548 1548 1547 1543 1543 1550 1561 1562 1559 1558 1555 1553 1550 1547 1543 1538 1532 1528 1526 1523 1520 1518 1516 1514 1512 1512 1511 1512 1513 1513 1515 1516 1518 1520 1522 1524 1527
1544 1543 1541 1543 1547 1547 1551 1543 1542 1542 1550 1557 1552 1570 1571 1564 1560 1557 1554 1551 1548 1543 1538 1533 1528 1524 1521 1518 1515 1513 1511 1509 1508 1507 1507 1507 1508 1509 1511 1513 1515 1518 1520 1522
1550 1548 1547 1550 1550 1547 1546 1540 1540 1541 1548 1559 1560 1572 1578 1568 1566 1562 1558 1553 1549 1544 1538 1533 1528 1523 1520 1517 1513 1511 1508 1506 1504 1503 1503 1503 1504 1505 1506 1509 1511 1513 1516 1517
1550 1548 1549 1551 1548 1547 1544 1542 1543 1548 1557 1573 1572 1576 1582 1578 1575 1568 1561 1555 1550 1543 1537 1532 1527 1522 1519 1516 1512 1509 1506 1504 1501 1500 1499 1499 1500 1501 1502 1504 1507 1509 1511 1512
1558 1556 1553 1552 1552 1550 1551 1560 1570 1573 1580 1582 1574 1579 1586 1580 1575 1570 1564 1556 1549 1543 1537 1531 1526 1522 1518 1515 1511 1508 1506 1503 1500 1498 1497 1497 1497 1498 1499 1501 1503 1505 1507 1509
1568 1572 1561 1557 1557 1558 1558 1565 1581 1586 1587 1584 1579 1584 1585 1578 1575 1570 1564 1557 1549 1543 1537 1531 1527 1523 1518 1514 1512 1508 1506 1503 1500 1498 1497 1496 1496 1496 1497 1500 1501 1504 1506 1508
1570 1573 1563 1561 1559 1558 1563 1568 1568 1579 1579 1587 1587 1585 1581 1577 1573 1568 1562 1556 1550 1544 1538 1532 1528 1523 1518 1515 1512 1510 1507 1504 1502 1499 1498 1497 1497 1497 1498 1500 1502 1503 1505 1507
1561 1572 1566 1563 1562 1562 1565 1567 1575 1582 1589 1595 1592 1591 1592 1581 1575 1569 1563 1558 1552 1546 1540 1534 1529 1524 1520 1517 1514 1511 1509 1507 1504 1502 1501 1500 1499 1499 1500 1501 1503 1504 1505 1506
1558 1572 1575 1571 1573 1574 1571 1573 1578 1585 1588 1597 1600 1598 1587 1583 1577 1572 1567 1561 1555 1549 1543 1537 1532 1527 1523 1519 1516 1514 1511 1509 1507 1505 1504 1503 1502 1502 1502 1503 1504 1505 1506 1507
1562 1574 1583 1577 1573 1570 1572 1575 1579 1589 1593 1595 1598 1600 1583 1580 1576 1572 1568 1562 1557 1552 1546 1541 1535 1530 1526 1522 1520 1517 1514 1512 1510 1509 1508 1507 1506 1506 1505 1506 1506 1507 1508 1509
1563 1575 1590 1589 1585 1577 1576 1576 1577 1585 1593 1598 1600 1598 1581 1579 1576 1572 1568 1563 1559 1554 1549 1544 1540 1535 1531 1527 1524 1521 1518 1516 1514 1512 1511 1510 1509 1509 1508 1508 1509 1509 1510 1510
1562 1575 1583 1588 1587 1580 1580 1579 1578 1584 1595 1596 1595 1592 1583 1580 1576 1572 1568 1565 1561 1557 1553 1548 1544 1540 1536 1532 1529 1525 1522 1520 1518 1516 1514 1513 1512 1512 1511 1511 1511 1511 1511 1511
1563 1577 1576 1577 1575 1576 1578 1579 1580 1583 1588 1593 1590 1588 1583 1579 1577 1573 1570 1566 1563 1559 1555 1552 1548 1544 1541 1537 1534 1530 1527 1525 1522 1520 1518 1516 1516 1515 1514 1513 1513 1512 1512 1512
1566 1575 1577 1578 1576 1577 1580 1580 1580 1581 1583 1586 1586 1585 1579 1578 1576 1574 1571 1568 1565 1561 1558 1555 1552 1548 1545 1541 1538 1535 1532 1530 1527 1524 1522 1520 1519 1518 1517 1516 1515 1514 1514 1513
1569 1575 1582 1586 1578 1581 1587 1580 1579 1580 1580 1581 1585 1582 1578 1578 1576 1574 1572 1570 1567 1564 1561 1558 1554 1551 1548 1545 1542 1539 1537 1534 1531 1528 1526 1524 1522 1521 1519 1518 1517 1516 1515 1514
1568 1575 1583 1586 1585 1591 1583 1573 1574 1577 1577 1576 1577 1577 1576 1577 1576 1575 1573 1571 1568 1566 1563 1560 1557 1554 1551 1549 1546 1543 1541 1538 1535 1532 1530 1528 1526 1524 1522 1521 1519 1518 1517 1516
1565 1572 1582 1589 1589 1586 1579 1573 1573 1577 1578 1574 1575 1575 1575 1576 1576 1575 1573 1572 1569 1567 1565 1562 1560 1557 1554 1552 1549 1547 1544 1541 1538 1536 1534 1531 1529 1527 1525 1523 1522 1521 1519 1518
1567 1570 1580 1585 1585 1587 1575 1568 1569 1575 1579 1573 1573 1574 1575 1576 1579 1577 1573 1572 1570 1568 1566 1564 1561 1559 1556 1554 1552 1549 1547 1544 1542 1540 1537 1535 1532 1530 1528 1526 1525 1523 1522 1520
1573 1575 1579 1582 1582 1577 1566 1565 1570 1583 1578 1570 1571 1573 1574 1574 1575 1575 1573 1572 1570 1569 1567 1565 1562 1560 1558 1556 1554 1552 1549 1547 1545 1543 1540 1538 1535 1533 1531 1529 1528 1526 1525 1523
1572 1577 1578 1582 1582 1577 1562 1564 1569 1568 1565 1568 1570 1572 1573 1574 1574 1574 1573 1572 1570 1569 1567 1565 1563 1561 1559 1557 1555 1553 1551 1549 1547 1545 1543 1540 1538 1535 1534 1532 1530 1529 1527 1526
1563 1563 1566 1569 1568 1557 1557 1558 1560 1562 1564 1567 1569 1571 1572 1573 1573 1573 1573 1572 1570 1569 1567 1566 1564 1562 1560 1558 1556 1554 1553 1551 1549 1547 1545 1543 1541 1538 1537 1535 1533 1532 1530 1528
1555 1554 1557 1559 1556 1554 1556 1557 1559 1561 1563 1566 1568 1570 1571 1572 1573 1573 1572 1572 1570 1569 1568 1566 1564 1562 1561 1559 1557 1555 1554 1552 1551 1549 1547 1546 1544 1542 1540 1538 1536 1535 1533 1531
1550 1551 1554 1556 1553 1554 1555 1556 1558 1560 1562 1565 1567 1569 1571 1571 1572 1572 1572 1571 1570 1569 1568 1566 1565 1563 1561 1559 1558 1556 1555 1553 1552 1550 1549 1548 1546 1545 1543 1541 1540 1538 1536 1535
1544 1546 1550 1551 1546 1548 1549 1553 1556 1558 1561 1563 1566 1568 1569 1570 1571 1572 1572 1571 1570 1569 1568 1567 1565 1563 1562 1560 1558 1557 1556 1554 1553 1552 1550 1549 1548 1547 1546 1544 1543 1541 1540 1538